DW8826 Exeter UK current weather conditions

sailwx.info

Wind from 083 at 1 knots gusting 4

Air temperature 18.9° C
Dewpoint 15.4° C

Last reported at 2019-Sep-21 20:07 UTC.
Time now 2019-Sep-22 20:43 UTC

Location: N 50°45' W 003°23'.
View on Google Maps.

See reports from other nearby stations

  
Tides and Currents Weather Stations Pressure Air Temp Water Temp Dewpoint Dewpoint Depression Visibility Wind Speed Wind Dir Waves Ship Positions
date/time (UTC)wind fromknots sea level pressurealtimeterstation pressurevisibilityair tempwater tempwave heightnotes
2019-Sep-21 20:07 083 1 gusting 4 18.9
2019-Sep-21 19:58 127 1 gusting 9 18.9
2019-Sep-21 19:50 138 1 gusting 7 18.9
2019-Sep-21 19:40 125 1 gusting 7 18.9
2019-Sep-21 19:31 133 0 gusting 5 18.9
2019-Sep-21 19:22 134 2 gusting 7 18.9
2019-Sep-21 19:13 130 0 gusting 6 18.9
2019-Sep-21 19:04 135 0 gusting 7 18.9
2019-Sep-21 18:55 141 1 gusting 6 18.9
2019-Sep-21 18:46 116 0 gusting 6 18.9
2019-Sep-21 18:37 132 1 gusting 4 18.9
2019-Sep-21 18:28 118 3 gusting 12 18.9
2019-Sep-21 18:19 129 1 gusting 6 18.9
2019-Sep-21 18:10 105 3 gusting 11 18.9
2019-Sep-21 18:01 127 3 gusting 9 18.9
2019-Sep-21 17:52 113 3 gusting 11 18.9
2019-Sep-21 17:43 130 2 gusting 12 18.9
2019-Sep-21 17:34 119 1 gusting 4 18.9
2019-Sep-21 17:25 118 2 gusting 9 18.9
2019-Sep-21 17:16 126 4 gusting 7 18.9
2019-Sep-21 17:07 116 3 gusting 9 18.3
2019-Sep-21 16:58 119 4 gusting 8 18.3
2019-Sep-21 16:49 119 3 gusting 10 18.9
2019-Sep-21 16:40 129 3 gusting 9 18.9
2019-Sep-21 16:31 133 3 gusting 10 18.9
2019-Sep-21 16:22 132 2 gusting 7 18.9
2019-Sep-21 16:13 141 1 gusting 7 18.9
2019-Sep-21 16:04 129 2 gusting 9 18.9
2019-Sep-21 15:55 139 1 gusting 8 18.9
2019-Sep-21 15:46 129 3 gusting 14 19.4
2019-Sep-21 15:37 134 3 gusting 8 19.4
2019-Sep-21 15:28 123 3 gusting 9 19.4
2019-Sep-21 15:19 120 3 gusting 12 19.4
2019-Sep-21 15:10 133 2 gusting 6 19.4
2019-Sep-21 15:01 125 2 gusting 8 19.4
2019-Sep-21 14:52 124 1 gusting 8 20.0
2019-Sep-21 14:43 142 1 gusting 6 20.0
2019-Sep-21 14:34 124 2 gusting 6 19.4
2019-Sep-21 14:25 159 1 gusting 7 20.0
2019-Sep-21 14:16 133 1 gusting 6 20.0
2019-Sep-21 14:07 145 0 gusting 8 20.0
2019-Sep-21 13:58 139 1 gusting 10 20.0
2019-Sep-21 13:49 129 2 gusting 7 20.0
2019-Sep-21 13:40 126 2 gusting 9 20.0
2019-Sep-21 13:31 136 2 gusting 6 20.0
2019-Sep-21 13:23 124 3 gusting 9 20.6
2019-Sep-21 13:13 126 3 gusting 11 21.7
2019-Sep-21 13:04 115 4 gusting 6 21.7
2019-Sep-21 12:55 128 4 gusting 14 21.1
2019-Sep-21 12:46 112 2 gusting 9 21.7
2019-Sep-21 12:37 145 4 gusting 14 21.7
2019-Sep-21 12:28 112 3 gusting 13 22.2
2019-Sep-21 12:19 120 4 gusting 9 22.8